User: anonymous   Login
Location: Hobart
(42.8819°S, 147.3238°E)
Time: 15:23:55
(UTC+10:00)
Language:

Hubble Space Telescope - Orbit

View from above orbital plane
View from above orbital plane
View from above satellite
View from above satellite

Ground track
Ground track

The orbit data is extracted from the following two-line orbital elements,

1 20580U 90037B   19233.96515767  .00000361  00000-0  11013-4 0  9998
2 20580 028.4690 146.9226 0002896 098.0462 015.9832 15.09255769410529
Epoch (UTC): 21 August 2019 23:09:49
Eccentricity: 0.0002896
inclination: 28.4690°
perigee height: 536 km
apogee height: 540 km
right ascension of ascending node: 146.9226°
argument of perigee: 98.0462°
revolutions per day: 15.09255769
mean anomaly at epoch: 15.9832°
orbit number at epoch: 41052

The dashed part of the orbit path shows where the satellite is in the earth's shadow,  

DLR